Starlink 30928

operational
NORAD ID: 58452 Int'l Des: 2023-183 Owner: SPXS Country: US Constellation: starlink
LEOCIRCULAR

Starlink 30928について

説明を読み込み中...

リアルタイム位置

3D地球を読み込み中...

次回通過

高度履歴

Altitude vs Time

uPlot chart will show altitude changes over time

軌道要素

1 58452U 23183R 25304.62030418 .00000458 00000-0 48973-4 0 9991
2 58452 43.0036 24.2376 0001727 272.8092 87.2553 15.02546007107304
Epoch: Oct 31, 2025 • Age: 9 hours

現在のステータス

高度 570.0 km
速度 7.58 km/s
衛星直下点 -40.16°S, 84.77°W
打ち上げ日 Nov 28, 2023
運用期間 1.9 years
タイプ internet

技術仕様

分類 Payload
質量 730.00 kg
乾燥質量 700.00 kg
総質量 730.00 kg
長さ 0.30 m
直径 4.10 m
スパン 29.00 m
形状 Box + pan
製造者 SPXS
バスタイプ Starlink V2M
フェーズステータス In Orbit
所有者/国 SPXS/US

大規模コンステレーション

Loading constellations...